IRIDIUM 36 [-]

Last updated on Wed Jun 28 2023 00:03:02 GMT+0000 (Coordinated Universal Time)

1 24967U 97056C 23178.11674968 .00000605 00000+0 20041-3 0 9998 2 24967 86.3970 115.7188 0002294 91.1671 268.9789 14.36314667348674
UTC large
Height (km)
Speed (km/s)
/
Latitude / Longitude
Inclination (degrees)
Orbital Period (minutes)
Azimuth
Elevation
Range (km)
Doppler Factor

Next 0 passes for location: London (51.5072 / 0.1276)

Sorry there are no passes over London.